Location: Detroit
(42.3310°N, 83.0460°W)
Time: 07:20:37
(UTC-04:00)

Explorer 11/Cluster Stage 4 - Pass Details

Date: 11 February 2023
Orbit: 466 x 1241 km, 28.8° (Epoch: 02 April)

Event Time Altitude Azimuth Distance (km) Brightness Sun altitude
Exits shadow 06:38:30 - 245° (WSW) 3,237 9.2 -10.8°
Reaches altitude 10° 06:39:47 10° 238° (WSW) 2,971 9.1 -10.6°
Maximum altitude 06:44:29 18° 198° (SSW) 2,547 9.1 -9.7°
Drops below altitude 10° 06:49:27 10° 160° (SSE) 3,173 10.1 -8.8°
Sets 06:53:29 0° 143° (SE) 4,163 11.1 -8.1°
